Location: Unspecified
(0.0000°N, 0.0000°E)
Time: 07:18:34
(UTC+01:00)

ARIANE 5 R/B - Visible Passes

Search period start: 29 January 2015 00:00
Search period end: 08 February 2015 00:00
Orbit: 580 x 35548 km, 4.8° (Epoch: 28 January)

Date Brightness Start Highest point End Pass type
(mag) Time Alt. Az. Time Alt. Az. Time Alt. Az.
29 Jan 7.5 14:16:15 10° W 23:53:24 82° S 23:56:27 80° SSE visible
30 Jan 6.1 11:14:18 10° W 11:22:55 76° N 21:04:16 18° E visible
31 Jan 2.9 20:17:44 10° W 05:16:16 80° NE 05:19:33 10° E visible
01 Feb 7.9 16:25:23 10° W 01:53:43 41° W 01:53:43 41° W visible
02 Feb 7.5 13:17:48 10° W 22:39:37 83° S 23:01:33 62° ESE visible
03 Feb 5.6 10:16:51 10° WNW 10:23:16 71° N 20:06:00 10° E visible
04 Feb 5.7 18:51:33 10° W 04:21:47 12° E 04:22:01 10° E visible
05 Feb 7.6 15:24:35 10° W 00:58:50 59° WSW 00:58:50 59° WSW visible
06 Feb 6.9 12:19:46 10° W 12:35:13 82° N 22:06:41 43° E visible
